WB5OMR-9 Weather Reports


Display with metric or nautical units.
time (UTC)temp
F
wind
direction
speed
MPH
gust
MPH
rain 1hr
in
rain 24hr
in
rain mn
in
humidity
%
barometer
mb
20260905143308 84 135 0.0 0.0 0.00 0.00 0.00 78 1014.6
20260905142308 83 112 0.0 0.0 0.00 0.00 0.00 79 1014.6
20260905141307 82 112 0.0 0.0 0.00 0.00 0.00 80 1014.6
20260905140306 82 90 0.0 0.0 0.00 0.00 0.00 80 1014.6
20260905135306 82 135 0.0 0.0 0.00 0.00 0.00 80 1014.2
20260905134304 82 90 0.0 0.0 0.00 0.00 0.00 80 1014.2
20260905133302 82 157 0.0 0.0 0.00 0.00 0.00 80 1014.2
20260905132305 81 135 0.0 0.0 0.00 0.00 0.00 81 1014.2
20260905131218 81 135 0.0 0.0 0.00 0.00 0.00 81 1013.9
20260905130134 81 112 0.0 0.0 0.00 0.00 0.00 81 1013.9
20260905125134 80 90 0.0 0.0 0.00 0.00 0.00 81 1013.5
20260905124133 80 90 0.0 0.0 0.00 0.00 0.00 81 1013.5
20260905123132 80 67 0.0 0.0 0.00 0.00 0.00 81 1013.5
20260905122131 80 112 0.0 0.0 0.00 0.00 0.00 81 1013.2
20260905121129 80 67 0.0 0.0 0.00 0.00 0.00 80 1013.2
20260905120046 80 112 0.0 0.0 0.00 0.00 0.00 80 1013.2
20260905115002 80 112 0.0 0.0 0.00 0.00 0.00 79 1013.2
20260905113919 80 112 0.0 0.0 0.00 0.00 0.00 80 1013.2
20260905112918 80 112 0.0 0.0 0.00 0.00 0.00 79 1013.2
20260905111917 80 112 0.0 0.0 0.00 0.00 0.00 79 1012.9
20260905110917 80 112 0.0 0.0 0.00 0.00 0.00 79 1012.9
20260905105915 81 135 0.0 0.0 0.00 0.00 0.00 79 1012.9
20260905104914 81 90 0.0 0.0 0.00 0.00 0.00 78 1012.9
20260905103913 81 112 0.0 0.0 0.00 0.00 0.00 78 1012.9
20260905102913 81 112 0.0 0.0 0.00 0.00 0.00 78 1012.9
20260905101911 81 112 0.0 0.0 0.00 0.00 0.00 78 1012.9
20260905100910 81 112 0.0 0.0 0.00 0.00 0.00 78 1012.9
20260905095909 81 112 0.0 0.0 0.00 0.00 0.00 78 1012.9
20260905094908 81 90 0.0 0.0 0.00 0.00 0.00 77 1012.9
20260905093907 81 157 0.0 0.0 0.00 0.00 0.00 77 1012.9
20260905092906 81 135 0.0 0.0 0.00 0.00 0.00 77 1013.2
20260905091905 81 112 0.0 0.0 0.00 0.00 0.00 77 1013.2
20260905090904 81 135 0.0 0.0 0.00 0.00 0.00 75 1013.2
20260905085903 82 157 0.0 0.0 0.00 0.00 0.00 75 1013.2
20260905084902 82 135 0.0 0.0 0.00 0.00 0.00 75 1013.2
20260905083901 82 135 0.0 0.0 0.00 0.00 0.00 75 1013.2
20260905082818 82 112 0.0 0.0 0.00 0.00 0.00 74 1013.2
20260905081817 82 135 0.0 0.0 0.00 0.00 0.00 74 1013.2
20260905080816 82 135 0.0 0.0 0.00 0.00 0.00 74 1012.9
20260905075815 82 135 0.0 0.0 0.00 0.00 0.00 73 1012.9
20260905074814 82 112 0.0 0.0 0.00 0.00 0.00 73 1013.2
20260905073731 82 112 0.0 0.0 0.00 0.00 0.00 72 1013.2
20260905072648 82 135 0.0 0.0 0.00 0.00 0.00 72 1013.2
20260905071647 83 135 0.0 0.0 0.00 0.00 0.00 71 1013.2
20260905070603 83 135 0.0 0.0 0.00 0.00 0.00 71 1013.2
20260905065602 83 157 0.0 0.0 0.00 0.00 0.00 71 1013.2
20260905064601 83 112 0.0 0.0 0.00 0.00 0.00 71 1013.5
20260905063550 83 112 0.0 0.0 0.00 0.00 0.00 71 1013.5
20260905062549 83 135 0.0 0.0 0.00 0.00 0.00 71 1013.5
20260905061548 83 135 0.0 0.0 0.00 0.00 0.00 71 1013.5
20260905060504 84 202 0.0 0.0 0.00 0.00 0.00 70 1013.5
20260905055421 84 157 0.0 0.0 0.00 0.00 0.00 70 1013.2
20260905054338 84 135 0.0 0.0 0.00 0.00 0.00 69 1013.5
20260905053337 84 135 0.0 0.0 0.00 0.00 0.00 68 1013.5
20260905052253 84 157 0.0 0.0 0.00 0.00 0.00 67 1013.5
20260905051250 85 157 0.0 0.0 0.00 0.00 0.00 66 1013.5
20260905050249 85 135 0.0 0.0 0.00 0.00 0.00 65 1013.9
20260905045248 85 135 0.0 0.0 0.00 0.00 0.00 63 1013.9
20260905044247 85 135 0.0 0.0 0.00 0.00 0.00 62 1013.9
20260905043246 86 112 0.0 0.0 0.00 0.00 0.00 61 1013.9
20260905042246 86 157 0.0 0.0 0.00 0.00 0.00 60 1013.5
20260905041244 86 112 0.0 0.0 0.00 0.00 0.00 60 1013.5
20260905040243 86 157 0.0 0.0 0.00 0.00 0.00 60 1013.5
20260905035242 87 202 0.0 0.0 0.00 0.00 0.00 59 1013.5
20260905034240 87 135 0.0 0.0 0.00 0.00 0.00 59 1013.5
20260905033239 87 135 0.0 0.0 0.00 0.00 0.00 59 1013.5
20260905032156 87 157 0.0 0.0 0.00 0.00 0.00 58 1013.5
20260905031112 88 135 0.0 0.0 0.00 0.00 0.00 57 1013.2
20260905030111 88 135 0.0 0.0 0.00 0.00 0.00 56 1012.9
20260905025110 88 45 0.0 0.0 0.00 0.00 0.00 56 1012.9
20260905024108 88 67 0.0 0.0 0.00 0.00 0.00 56 1012.5
20260905023107 88 45 0.0 0.0 0.00 0.00 0.00 56 1011.9
20260905022105 89 67 0.0 0.0 0.00 0.00 0.00 56 1011.5
20260905021105 89 135 0.0 0.0 0.00 0.00 0.00 55 1011.9
20260905020104 90 112 0.0 0.0 0.00 0.00 0.00 54 1012.2
20260905015102 90 67 0.0 0.0 0.00 0.00 0.00 54 1012.5
20260905014101 90 45 0.0 0.0 0.00 0.00 0.00 53 1012.9
20260905013100 91 67 0.0 0.0 0.00 0.00 0.00 53 1012.5
20260905012059 91 112 0.0 0.0 0.00 0.00 0.00 53 1012.2
20260905011058 91 45 0.0 0.0 0.00 0.00 0.00 53 1012.2
20260905010057 92 45 0.0 0.0 0.00 0.00 0.00 52 1012.2
20260905005056 92 67 0.0 0.0 0.00 0.00 0.00 52 1011.9
20260905004054 92 45 0.0 0.0 0.00 0.00 0.00 52 1011.9
20260905003053 93 67 0.0 0.0 0.00 0.00 0.00 51 1011.9
20260905002051 94 112 0.0 0.0 0.00 0.00 0.00 50 1011.9
20260905001008 94 67 0.0 0.0 0.00 0.00 0.00 49 1011.9
20260905000007 95 67 0.0 0.0 0.00 0.00 0.00 48 1011.9
20260904235006 97 45 0.0 0.0 0.00 0.00 0.00 47 1011.9
20260904234005 98 67 0.0 0.0 0.00 0.00 0.00 46 1011.5
20260904233004 99 90 0.0 0.0 0.00 0.00 0.00 44 1011.2
20260904231920 100 247 0.0 0.0 0.00 0.00 0.00 41 1010.8
20260904230837 100 45 0.0 0.0 0.00 0.00 0.00 41 1010.8
20260904225836 100 112 0.0 0.0 0.00 0.00 0.00 39 1011.2
20260904224835 102 90 0.0 0.0 0.00 0.00 0.00 39 1011.2
20260904223835 101 90 0.0 0.0 0.00 0.00 0.00 41 1011.2
20260904222833 100 45 0.0 0.0 0.00 0.00 0.00 42 1011.5
20260904221832 101 67 0.0 0.0 0.00 0.00 0.00 41 1011.5
20260904220749 103 90 0.0 0.0 0.00 0.00 0.00 40 1011.5
20260904215748 102 90 0.0 0.0 0.00 0.00 0.00 40 1011.5
20260904214747 103 45 0.0 0.0 0.00 0.00 0.00 39 1011.5
20260904213746 103 90 0.0 0.0 0.00 0.00 0.00 38 1011.9
20260904212744 104 90 0.0 0.0 0.00 0.00 0.00 38 1011.9
20260904211743 103 67 0.0 0.0 0.00 0.00 0.00 39 1012.2
20260904210659 104 90 0.0 0.0 0.00 0.00 0.00 38 1012.2
20260904205658 105 67 0.0 0.0 0.00 0.00 0.00 38 1012.2
20260904204657 106 112 0.0 0.0 0.00 0.00 0.00 37 1012.2
20260904203656 105 45 0.0 0.0 0.00 0.00 0.00 39 1012.2
20260904202655 105 157 0.0 0.0 0.00 0.00 0.00 39 1012.5
20260904201655 104 112 0.0 0.0 0.00 0.00 0.00 39 1012.5
20260904200654 104 112 0.0 0.0 0.00 0.00 0.00 39 1012.9
20260904195652 105 157 0.0 0.0 0.00 0.00 0.00 40 1012.9
20260904194651 102 112 0.0 0.0 0.00 0.00 0.00 43 1012.9
20260904193608 101 337 0.0 0.0 0.00 0.00 0.00 44 1013.2
20260904192524 101 112 0.0 0.0 0.00 0.00 0.00 45 1013.2
20260904191441 100 135 0.0 0.0 0.00 0.00 0.00 45 1013.2
20260904190357 100 157 0.0 0.0 0.00 0.00 0.00 45 1013.5
20260904185356 100 135 0.0 0.0 0.00 0.00 0.00 46 1013.5
20260904184355 100 157 0.0 0.0 0.00 0.00 0.00 46 1014.2
20260904183354 100 90 0.0 0.0 0.00 0.00 0.00 46 1013.9
20260904182352 100 180 0.0 0.0 0.00 0.00 0.00 45 1013.2
20260904181351 100 135 0.0 0.0 0.00 0.00 0.00 46 1012.9
20260904180307 98 180 0.0 0.0 0.00 0.00 0.00 48 1013.5
20260904175306 97 135 0.0 0.0 0.00 0.00 0.00 50 1013.5
20260904174305 95 180 0.0 0.0 0.00 0.00 0.00 52 1013.9
20260904173304 95 180 0.0 0.0 0.00 0.00 0.00 53 1014.2
20260904172305 94 180 0.0 0.0 0.00 0.00 0.00 55 1014.2
20260904171302 93 112 0.0 0.0 0.00 0.00 0.00 56 1014.2
20260904170301 92 135 0.0 0.0 0.00 0.00 0.00 58 1014.6
20260904165300 91 157 0.0 0.0 0.00 0.00 0.00 59 1014.6
20260904164259 91 157 0.0 0.0 0.00 0.00 0.00 60 1014.6
20260904163216 91 157 0.0 0.0 0.00 0.00 0.00 60 1014.6
20260904162132 92 135 0.0 0.0 0.00 0.00 0.00 60 1014.6
20260904161132 92 112 0.0 0.0 0.00 0.00 0.00 60 1014.6
20260904160131 91 157 0.0 0.0 0.00 0.00 0.00 62 1014.6
20260904155130 90 157 0.0 0.0 0.00 0.00 0.00 63 1014.6
20260904154128 88 112 0.0 0.0 0.00 0.00 0.00 67 1014.6
20260904153127 88 157 0.0 0.0 0.00 0.00 0.00 66 1014.2
20260904152044 87 180 0.0 0.0 0.00 0.00 0.00 69 1014.2
20260904150959 87 202 0.0 0.0 0.00 0.00 0.00 70 1014.2
20260904145958 87 67 0.0 0.0 0.00 0.00 0.00 70 1014.2
20260904144957 87 67 0.0 0.0 0.00 0.00 0.00 72 1014.2
20260904143956 85 157 0.0 0.0 0.00 0.00 0.00 74 1014.2